Tracking 19570 objects as of 22-Feb-2019
HD Live streaming from Space Station
objects crossing your sky now

EUTE HOT BIRD 13A (HB 6)

Track EUTE HOT BIRD 13A (HB 6) now!
EUTE HOT BIRD 13A (HB 6) is classified as:


NORAD ID: 27499
Int'l Code: 2002-038A
Perigee: 36,031.4 km
Apogee: 36,088.7 km
Inclination: 2.1 °
Period: 1,449.7 minutes
Semi major axis: 42431 km
RCS: 15.0118 m2 (large)
Launch date: August 21, 2002
Source: European Telecommunications Satellite Organization (EUTE)
Launch site: AIR FORCE EASTERN TEST RANGE (AFETR)

Cable programming; direct-to-home broadcasting; 28 Ku-band, 4 Ka-band transponders
aabbcc
Your satellite tracking list
Your tracking list is empty




NASA's NSSDC Master Catalog

Two Line Element Set (TLE):
1 27499U 02038A   19053.47604880 -.00000326  00000-0  00000+0 0  9990
2 27499   2.1287  86.2593 0006756 243.7598 140.9445  0.99329264 60342
Source of the keplerian elements: AFSPC